Flag for Germany Weather past 2 weeks in Wiehl, North Rhine-Westphalia, Germany

Now
48 °F

Partly sunny.


Feels Like: 44 °F
Forecast: 45 / 51 °F
Wind: 10 mph from South

Location: Koeln / Bonn

Current Time: Mar 28, 2015 at 7:29:09 PM

Latest Report: Mar 28, 2015 at 6:50 PM


Visibility: N/A

Pressure: 29.92 "Hg

Humidity: 87%

Dew point: 45 °F

Location of WiehlLocation

Historic Weather in Wiehl — Graph

°F

Wiehl temperature yesterday

Maximum temperature yesterday: 50 °F (at 3:20 PM)
Minimum temperature yesterday: 41 °F (at 5:20 AM)
Average temperature yesterday: 45 °F

Past Weeks' High & Low Weather Summary

 TemperatureHumidityPressure
High66 °F (Mar 17, 3:50 PM)100% (Mar 16, 4:50 AM)30.36 "Hg (Mar 16, 4:50 AM)
Low28 °F (Mar 16, 7:20 AM)28% (Mar 17, 3:50 PM)29.65 "Hg (Mar 25, 12:50 AM)
Average43 °F75%30.10 "Hg
* Reported Mar 13 6:20 PM — Mar 28 6:20 PM, Wiehl, Weather by CustomWeather, © 2015

Note: Actual official high and low records may vary slightly from our data, if they occured in-between our weather recording intervals... More about our weather records

Advertising

Wiehl weather history for previous 24 hours

 ConditionsComfort  
Time TempWeatherWind HumidityBarometerVisibility
6:20 PM
Sat, Mar 28
48 °FPartly sunny.9 mph87%29.92 "HgN/A
5:50 PM46 °FPartly sunny.9 mph93%29.92 "HgN/A
5:20 PM46 °FPartly sunny.10 mph93%29.95 "Hg4 mi
4:50 PM46 °FDrizzle. Fog.8 mph93%29.95 "Hg1 mi
4:20 PM46 °FDrizzle. Fog.8 mph93%29.98 "Hg2 mi
3:50 PM48 °FDrizzle. Broken clouds.12 mph87%29.98 "Hg5 mi
3:20 PM48 °FLight rain. Partly sunny.12 mph82%29.98 "HgN/A
2:50 PM50 °FLight rain. Mostly cloudy.9 mph82%30.01 "HgN/A
2:20 PM50 °FRain. Mostly cloudy.12 mph71%30.01 "HgN/A
1:50 PM52 °FLight rain. Mostly cloudy.14 mph62%30.04 "HgN/A
1:20 PM52 °FLight rain. Partly sunny.15 mph58%30.04 "HgN/A
12:50 PM54 °FPartly sunny.16 mph51%30.04 "HgN/A
12:20 PM54 °FPartly sunny.15 mph51%30.04 "HgN/A
11:50 AM54 °FPartly sunny.16 mph47%30.07 "HgN/A
11:20 AM54 °FPartly sunny.16 mph47%30.07 "HgN/A
10:50 AM54 °FPartly sunny.15 mph44%30.09 "HgN/A
10:20 AM52 °FSunny.10 mph50%30.09 "Hg10 mi
9:50 AM50 °FSunny.9 mph54%30.12 "Hg10 mi
9:20 AM48 °FSunny.9 mph58%30.12 "Hg10 mi
8:50 AM45 °FSunny.7 mph66%30.15 "Hg10 mi
8:20 AM43 °FSunny.5 mph66%30.15 "Hg10 mi
7:50 AM41 °FSunny.6 mph70%30.15 "Hg10 mi
7:20 AM39 °FSunny.5 mph81%30.15 "Hg10 mi
6:50 AM37 °FSunny.2 mph81%30.15 "Hg10 mi
6:20 AM36 °FFog.3 mph87%30.18 "HgN/A
5:50 AM36 °FPassing clouds.5 mph93%30.18 "HgN/A
5:20 AM37 °FPassing clouds.5 mph87%30.18 "HgN/A
4:50 AM37 °FPassing clouds.3 mph87%30.18 "HgN/A
4:20 AM39 °FPassing clouds.5 mph81%30.18 "HgN/A
3:50 AM39 °FPassing clouds.6 mph81%30.21 "HgN/A
3:20 AM39 °FPassing clouds.5 mph81%30.21 "HgN/A
2:50 AM39 °FPassing clouds.5 mph81%30.21 "HgN/A
2:20 AM41 °FPassing clouds.5 mph76%30.21 "HgN/A
1:50 AM41 °FPassing clouds.5 mph76%30.21 "HgN/A
1:20 AM41 °FPassing clouds.3 mph76%30.21 "HgN/A
12:50 AM41 °FPassing clouds.2 mph76%30.21 "HgN/A
12:20 AM41 °FPassing clouds.1 mph76%30.21 "HgN/A
11:50 PM
Fri, Mar 27
41 °FPassing clouds.2 mph76%30.21 "HgN/A
11:20 PM43 °FPassing clouds.1 mph71%30.21 "HgN/A
10:50 PM43 °FPassing clouds.1 mph71%30.21 "HgN/A
10:20 PM43 °FPassing clouds.1 mph71%30.21 "HgN/A
9:50 PM43 °FPassing clouds.3 mph71%30.21 "HgN/A
9:20 PM45 °FPassing clouds.5 mph61%30.18 "HgN/A
8:50 PM45 °FPassing clouds.7 mph66%30.18 "HgN/A
8:20 PM45 °FClear.8 mph61%30.18 "Hg10 mi
7:50 PM46 °FPassing clouds.8 mph57%30.18 "HgN/A
7:20 PM46 °FPassing clouds.7 mph57%30.15 "HgN/A
Weather by CustomWeather, © 2015

See weather overviewHow to use our weather pages